This is the latest recevied weather packets stored in our database for station/object W8BS. If no packets are shown the sender has not sent any weather packets the latest 10 day(s).
| Time | Temp. | Humidity | Pressure | Rain* | Wind** | Luminosity | Snow |
|---|---|---|---|---|---|---|---|
| 1777719759 | 1.67° C | 99% | 1014.3 hPa | 0 mm | - | 29 W/m² | - |
| 1777719457 | 1.67° C | 99% | 1014.3 hPa | 0 mm | - | 24 W/m² | - |
| 1777719152 | 1.67° C | 99% | 1014.2 hPa | 0 mm | - | 19 W/m² | - |
| 1777718851 | 1.67° C | 99% | 1014.3 hPa | 0 mm | - | 18 W/m² | - |
| 1777718548 | 1.67° C | 99% | 1014.2 hPa | 0 mm | - | 12 W/m² | - |
| 1777718246 | 1.67° C | 99% | 1014.3 hPa | 0 mm | - | 7 W/m² | - |
| 1777717943 | 1.67° C | 99% | 1014.4 hPa | 0 mm | - | 4 W/m² | - |
| 1777717640 | 1.67° C | 99% | 1014.3 hPa | 0 mm | - | 3 W/m² | - |
| 1777717336 | 1.67° C | 99% | 1014.2 hPa | 0 mm | - | 1 W/m² | - |
| 1777717034 | 1.67° C | 99% | 1014.2 hPa | 0 mm | - | 0 W/m² | - |
| 1777716732 | 1.67° C | 99% | 1014.4 hPa | 0 mm | - | 0 W/m² | - |
| 1777716430 | 1.67° C | 99% | 1014.2 hPa | 0 mm | - | 0 W/m² | - |
| 1777716128 | 1.67° C | 99% | 1014.3 hPa | 0 mm | - | 0 W/m² | - |
| 1777715826 | 1.67° C | 99% | 1014.5 hPa | 0 mm | - | 0 W/m² | - |
| 1777715523 | 1.67° C | 99% | 1014.4 hPa | 0 mm | - | 0 W/m² | - |
| 1777715221 | 1.67° C | 99% | 1014.5 hPa | 0 mm | - | 0 W/m² | - |
| 1777714919 | 1.67° C | 99% | 1014.4 hPa | 0 mm | - | 0 W/m² | - |
| 1777714616 | 1.67° C | 99% | 1014.3 hPa | 0 mm | - | 0 W/m² | - |
| 1777714314 | 1.67° C | 99% | 1014.2 hPa | 0 mm | - | 0 W/m² | - |
| 1777714011 | 1.67° C | 99% | 1014.2 hPa | 0 mm | - | 0 W/m² | - |
| 1777713709 | 2.22° C | 99% | 1014.4 hPa | 0 mm | - | 0 W/m² | - |
| 1777713405 | 2.22° C | 99% | 1014.4 hPa | 0 mm | - | 0 W/m² | - |
| 1777713102 | 2.22° C | 99% | 1014.5 hPa | 0 mm | - | 0 W/m² | - |
| 1777712799 | 2.22° C | 99% | 1014.2 hPa | 0 mm | - | 0 W/m² | - |
| 1777712497 | 2.22° C | 99% | 1014.3 hPa | 0 mm | - | 0 W/m² | - |
* Rain latest hour (hover to see other rain measurements)
** Current wind speed in m/s (hover to see current wind gust speed)